AYN1311 UAAA-UTTT

Flight info

Callsign AYN1311
Flight time N/A
Altitude 32000
Route EKLAT Z370 AGLEK Z817 TAR N143 KOLAM Z580 BAMUT Z554 DODUR DODUR1X
Aircraft A320/M-SDE3FGHIRWY/LB1

Departure

Time 2026-04-23 11:14
Airport Almaty International Airport (UAAA)

Arrival

Time N/A
Airport UTTT
Time Latitude Longitude Altitude Speed Heading
2026-04-23 11:08 43.34505 77.01432 2229 ft 0 kts 66°
2026-04-23 11:11 43.34510 77.01447 2226 ft 4 kts 68°
2026-04-23 11:11 43.34493 77.01517 2226 ft 12 kts 140°
2026-04-23 11:11 43.34391 77.01585 2227 ft 17 kts 155°
2026-04-23 11:12 43.34290 77.01650 2228 ft 15 kts 154°
2026-04-23 11:12 43.34201 77.01707 2226 ft 13 kts 154°
2026-04-23 11:12 43.34164 77.01808 2228 ft 13 kts 83°
2026-04-23 11:12 43.34174 77.01827 2227 ft 1 kts 41°
2026-04-23 11:13 43.34186 77.01862 2228 ft 9 kts 63°
2026-04-23 11:13 43.34247 77.01993 2226 ft 34 kts 56°
2026-04-23 11:13 43.34534 77.02572 2231 ft 110 kts 55°
2026-04-23 11:13 43.35086 77.03682 2233 ft 168 kts 54°
2026-04-23 11:14 43.35821 77.05161 2439 ft 202 kts 53°
2026-04-23 11:14 43.36644 77.06784 3040 ft 205 kts 54°
2026-04-23 11:14 43.37550 77.08380 3494 ft 223 kts 39°
2026-04-23 11:14 43.38994 77.09315 3813 ft 242 kts
2026-04-23 11:15 43.40674 77.08864 4180 ft 258 kts 326°
2026-04-23 11:15 43.41854 77.07020 4877 ft 264 kts 291°
2026-04-23 11:15 43.42149 77.04526 5709 ft 267 kts 272°
2026-04-23 11:15 43.42132 77.01992 6549 ft 269 kts 268°
2026-04-23 11:16 43.42028 76.99398 7327 ft 273 kts 267°
2026-04-23 11:16 43.41909 76.96783 8110 ft 276 kts 266°
2026-04-23 11:16 43.41801 76.94130 8893 ft 279 kts 267°
2026-04-23 11:16 43.41706 76.91456 9665 ft 283 kts 267°
2026-04-23 11:17 43.41620 76.88727 10297 ft 291 kts 267°
2026-04-23 11:17 43.41537 76.85825 10482 ft 314 kts 267°
2026-04-23 11:17 43.41453 76.82714 10618 ft 337 kts 268°
2026-04-23 11:17 43.41366 76.79388 10743 ft 357 kts 268°
2026-04-23 11:18 43.41281 76.75877 10856 ft 378 kts 268°
2026-04-23 11:18 43.41191 76.72179 11151 ft 392 kts 268°
2026-04-23 11:18 43.41096 76.68416 11703 ft 396 kts 267°
2026-04-23 11:18 43.40998 76.64624 12251 ft 399 kts 267°
2026-04-23 11:19 43.40897 76.60795 12807 ft 400 kts 267°
2026-04-23 11:19 43.40810 76.56953 13351 ft 402 kts 267°
2026-04-23 11:19 43.40718 76.53103 13897 ft 404 kts 266°
2026-04-23 11:19 43.40604 76.49222 14388 ft 406 kts 266°
2026-04-23 11:20 43.40480 76.45377 14880 ft 408 kts 266°
2026-04-23 11:20 43.40351 76.41479 15392 ft 409 kts 266°
2026-04-23 11:20 43.40226 76.37565 15903 ft 411 kts 266°
2026-04-23 11:20 43.40098 76.33623 16429 ft 412 kts 266°
2026-04-23 11:21 43.39942 76.29688 16961 ft 413 kts 265°
2026-04-23 11:21 43.39760 76.25735 17452 ft 415 kts 265°
2026-04-23 11:21 43.39563 76.21762 17885 ft 418 kts 265°
2026-04-23 11:21 43.39358 76.17754 18339 ft 420 kts 265°
2026-04-23 11:22 43.39153 76.13728 18741 ft 422 kts 265°
2026-04-23 11:22 43.38952 76.09697 19140 ft 424 kts 265°
2026-04-23 11:22 43.38755 76.05637 19549 ft 426 kts 265°
2026-04-23 11:22 43.38559 76.01574 19942 ft 427 kts 265°
2026-04-23 11:23 43.38362 75.97495 20334 ft 429 kts 265°
2026-04-23 11:23 43.38162 75.93378 20702 ft 431 kts 265°
2026-04-23 11:23 43.37959 75.89250 21087 ft 433 kts 264°
2026-04-23 11:23 43.37756 75.85180 21506 ft 432 kts 264°
2026-04-23 11:24 43.37547 75.81071 22007 ft 429 kts 264°
2026-04-23 11:24 43.37336 75.76990 22505 ft 428 kts 264°
2026-04-23 11:24 43.37125 75.72927 23007 ft 426 kts 264°
2026-04-23 11:24 43.36912 75.68869 23521 ft 424 kts 264°
2026-04-23 11:25 43.36698 75.64821 23969 ft 422 kts 264°
2026-04-23 11:25 43.36489 75.60819 24446 ft 419 kts 263°
2026-04-23 11:25 43.36281 75.56846 24945 ft 416 kts 263°
2026-04-23 11:25 43.36073 75.52894 25462 ft 412 kts 263°
2026-04-23 11:26 43.35867 75.48986 25982 ft 409 kts 262°
2026-04-23 11:26 43.35660 75.45099 26525 ft 405 kts 262°
2026-04-23 11:26 43.35455 75.41284 27060 ft 402 kts 262°
2026-04-23 11:26 43.35245 75.37477 27597 ft 398 kts 261°
2026-04-23 11:27 43.35033 75.33688 28132 ft 395 kts 261°
2026-04-23 11:27 43.34822 75.29930 28668 ft 392 kts 261°
2026-04-23 11:27 43.34615 75.26200 29196 ft 389 kts 261°
2026-04-23 11:27 43.34411 75.22511 29726 ft 387 kts 261°
2026-04-23 11:28 43.34208 75.18833 30234 ft 384 kts 260°
2026-04-23 11:28 43.34006 75.15192 30696 ft 381 kts 260°
2026-04-23 11:28 43.33802 75.11564 31164 ft 379 kts 260°
2026-04-23 11:28 43.33595 75.07966 31645 ft 377 kts 260°
2026-04-23 11:29 43.33388 75.04371 32010 ft 376 kts 260°
2026-04-23 11:29 43.32967 74.97177 32091 ft 388 kts 260°
2026-04-23 11:30 43.32514 74.89640 32095 ft 401 kts 260°
2026-04-23 11:30 43.32060 74.81961 32098 ft 404 kts 260°
2026-04-23 11:31 43.31602 74.74246 32098 ft 405 kts 260°
2026-04-23 11:31 43.31139 74.66549 32100 ft 405 kts 260°
2026-04-23 11:32 43.30748 74.60128 32106 ft 405 kts 260°
2026-04-23 11:32 43.30269 74.52430 32106 ft 405 kts 260°
2026-04-23 11:33 43.29708 74.43458 32107 ft 406 kts 260°
2026-04-23 11:33 43.29301 74.36986 32106 ft 406 kts 260°
2026-04-23 11:34 43.28246 74.29487 32099 ft 399 kts 249°
2026-04-23 11:34 43.26612 74.22257 32098 ft 399 kts 249°
2026-04-23 11:35 43.24959 74.14977 32092 ft 400 kts 249°
2026-04-23 11:35 43.23299 74.07696 32088 ft 400 kts 249°
2026-04-23 11:36 43.21627 74.00419 32088 ft 400 kts 249°
2026-04-23 11:36 43.19952 73.93126 32090 ft 400 kts 249°
2026-04-23 11:37 43.18274 73.85849 32088 ft 400 kts 249°
2026-04-23 11:37 43.16591 73.78575 32091 ft 400 kts 249°
2026-04-23 11:38 43.14917 73.71352 32095 ft 400 kts 249°
2026-04-23 11:38 43.13220 73.64088 32102 ft 400 kts 249°
2026-04-23 11:39 43.11525 73.56828 32092 ft 400 kts 249°
2026-04-23 11:39 43.09822 73.49570 32096 ft 400 kts 249°
2026-04-23 11:40 43.08114 73.42321 32099 ft 400 kts 249°
2026-04-23 11:40 43.06406 73.35075 32107 ft 400 kts 249°
2026-04-23 11:41 43.04701 73.27877 32102 ft 400 kts 248°
2026-04-23 11:41 43.02981 73.20650 32096 ft 399 kts 248°
2026-04-23 11:42 43.01254 73.13429 32094 ft 400 kts 248°
2026-04-23 11:42 42.99526 73.06210 32103 ft 399 kts 248°
2026-04-23 11:43 42.97799 72.98996 32097 ft 399 kts 248°
2026-04-23 11:43 42.96080 72.91821 32098 ft 399 kts 248°
2026-04-23 11:44 42.94340 72.84624 32088 ft 399 kts 248°
2026-04-23 11:44 42.92592 72.77433 32106 ft 399 kts 248°
2026-04-23 11:45 42.90845 72.70238 32104 ft 398 kts 248°
2026-04-23 11:45 42.89102 72.63065 32111 ft 398 kts 248°
2026-04-23 11:46 42.87364 72.55948 32101 ft 398 kts 248°
2026-04-23 11:46 42.85608 72.48791 32106 ft 398 kts 248°
2026-04-23 11:47 42.83851 72.41643 32105 ft 397 kts 248°
2026-04-23 11:47 42.82091 72.34513 32106 ft 397 kts 247°
2026-04-23 11:48 42.80330 72.27391 32096 ft 396 kts 248°
2026-04-23 11:48 42.78566 72.20317 32099 ft 396 kts 248°
2026-04-23 11:49 42.76794 72.13201 32099 ft 397 kts 248°
2026-04-23 11:49 42.75028 72.06097 32094 ft 396 kts 248°
2026-04-23 11:50 42.73254 71.98995 32105 ft 396 kts 248°
2026-04-23 11:50 42.71469 71.91904 32109 ft 396 kts 248°
2026-04-23 11:51 42.69681 71.84809 32107 ft 396 kts 248°
2026-04-23 11:51 42.67905 71.77779 32103 ft 395 kts 248°
2026-04-23 11:52 42.66108 71.70704 32104 ft 396 kts 248°
2026-04-23 11:52 42.64311 71.63643 32110 ft 396 kts 248°
2026-04-23 11:53 42.62507 71.56576 32110 ft 395 kts 248°
2026-04-23 11:53 42.60701 71.49521 32114 ft 395 kts 248°
2026-04-23 11:54 42.58905 71.42515 32111 ft 395 kts 247°
2026-04-23 11:54 42.57089 71.35468 32108 ft 395 kts 247°
2026-04-23 11:55 42.55268 71.28422 32106 ft 396 kts 247°
2026-04-23 11:55 42.53446 71.21360 32107 ft 396 kts 247°
2026-04-23 11:56 42.51615 71.14312 32109 ft 396 kts 247°
2026-04-23 11:56 42.49778 71.07274 32112 ft 396 kts 247°
2026-04-23 11:57 42.47936 71.00239 32117 ft 396 kts 247°
2026-04-23 11:57 42.46095 70.93205 32124 ft 396 kts 247°
2026-04-23 11:58 42.44264 70.86220 32123 ft 395 kts 247°
2026-04-23 11:58 42.42415 70.79214 32127 ft 395 kts 247°
2026-04-23 11:59 42.40563 70.72211 32125 ft 394 kts 247°
2026-04-23 11:59 42.38711 70.65231 32120 ft 394 kts 247°
2026-04-23 12:00 42.36866 70.58268 32117 ft 393 kts 247°
2026-04-23 12:00 42.35023 70.51321 32106 ft 393 kts 247°
2026-04-23 12:01 42.33179 70.44407 32077 ft 392 kts 247°
2026-04-23 12:01 42.31322 70.37479 32094 ft 392 kts 247°
2026-04-23 12:02 42.29459 70.30562 31487 ft 390 kts 247°
2026-04-23 12:02 42.28527 70.27115 30664 ft 392 kts 246°
2026-04-23 12:02 42.27265 70.23861 30255 ft 390 kts 232°
2026-04-23 12:02 42.25365 70.21254 30028 ft 392 kts 219°
2026-04-23 12:03 42.23066 70.19262 29081 ft 396 kts 214°
2026-04-23 12:03 42.20698 70.17392 27926 ft 402 kts 213°
2026-04-23 12:03 42.18214 70.15489 26730 ft 409 kts 212°
2026-04-23 12:03 42.15735 70.13617 25526 ft 417 kts 212°
2026-04-23 12:04 42.13175 70.11687 24300 ft 425 kts 212°
2026-04-23 12:04 42.10602 70.09740 23383 ft 423 kts 212°
2026-04-23 12:04 42.08039 70.07790 22384 ft 421 kts 212°
2026-04-23 12:04 42.05506 70.05855 21513 ft 417 kts 212°
2026-04-23 12:05 42.02988 70.03925 20698 ft 414 kts 212°
2026-04-23 12:05 42.00500 70.02014 19918 ft 411 kts 211°
2026-04-23 12:05 41.98022 70.00112 19125 ft 408 kts 211°
2026-04-23 12:05 41.95570 69.98228 18351 ft 405 kts 211°
2026-04-23 12:06 41.93047 69.96578 17491 ft 405 kts 200°
2026-04-23 12:06 41.90284 69.95823 16664 ft 404 kts 193°
2026-04-23 12:06 41.84852 69.94153 15138 ft 396 kts 197°
2026-04-23 12:07 41.82271 69.93068 14493 ft 391 kts 201°
2026-04-23 12:07 41.79707 69.91910 13826 ft 387 kts 201°
2026-04-23 12:07 41.77149 69.90743 13092 ft 385 kts 201°
2026-04-23 12:07 41.74634 69.89538 12363 ft 380 kts 206°
2026-04-23 12:08 41.72256 69.88021 11609 ft 379 kts 206°
2026-04-23 12:08 41.69864 69.86566 10875 ft 378 kts 206°
2026-04-23 12:08 41.67479 69.85109 10357 ft 370 kts 206°
2026-04-23 12:08 41.65375 69.83399 10245 ft 349 kts 217°
2026-04-23 12:09 41.63450 69.81531 10122 ft 333 kts 217°
2026-04-23 12:09 41.61450 69.80102 10003 ft 322 kts 198°
2026-04-23 12:09 41.59296 69.79464 9878 ft 310 kts 195°
2026-04-23 12:09 41.57255 69.78812 9742 ft 300 kts 195°
2026-04-23 12:10 41.55239 69.78155 9601 ft 290 kts 196°
2026-04-23 12:10 41.53328 69.77536 9471 ft 281 kts 195°
2026-04-23 12:10 41.51425 69.76968 9176 ft 277 kts 197°
2026-04-23 12:10 41.49722 69.75894 8859 ft 272 kts 214°
2026-04-23 12:11 41.48150 69.74479 8581 ft 270 kts 215°
2026-04-23 12:11 41.46633 69.73065 8440 ft 262 kts 216°
2026-04-23 12:11 41.45157 69.71688 8331 ft 255 kts 216°
2026-04-23 12:11 41.43727 69.70362 8181 ft 247 kts 216°
2026-04-23 12:12 41.42338 69.69063 8069 ft 240 kts 217°
2026-04-23 12:12 41.41196 69.67539 7958 ft 231 kts 233°
2026-04-23 12:12 41.40390 69.65732 7810 ft 223 kts 254°
2026-04-23 12:12 41.40113 69.63740 7701 ft 215 kts 261°
2026-04-23 12:13 41.40242 69.61821 7565 ft 211 kts 292°
2026-04-23 12:13 41.41173 69.60364 7438 ft 209 kts 329°
2026-04-23 12:13 41.42539 69.59759 7255 ft 207 kts 347°
2026-04-23 12:13 41.43962 69.59448 6997 ft 208 kts 350°
2026-04-23 12:14 41.45409 69.59266 6741 ft 208 kts
2026-04-23 12:14 41.46711 69.59962 6522 ft 205 kts 44°
2026-04-23 12:14 41.47439 69.61530 6274 ft 200 kts 78°
2026-04-23 12:14 41.47587 69.63364 5974 ft 198 kts 104°
2026-04-23 12:15 41.47108 69.65046 5696 ft 194 kts 128°
2026-04-23 12:15 41.46121 69.66222 5443 ft 190 kts 157°
2026-04-23 12:15 41.44841 69.66537 5187 ft 188 kts 188°
2026-04-23 12:15 41.43636 69.65929 4911 ft 188 kts 218°
2026-04-23 12:16 41.42654 69.64764 4621 ft 189 kts 221°
2026-04-23 12:16 41.41674 69.63588 4339 ft 190 kts 221°
2026-04-23 12:16 41.40704 69.62430 4107 ft 189 kts 221°
2026-04-23 12:16 41.39720 69.61256 4022 ft 196 kts 221°
2026-04-23 12:17 41.38664 69.59997 4018 ft 209 kts 221°
2026-04-23 12:17 41.37543 69.58657 4020 ft 226 kts 222°
2026-04-23 12:17 41.36357 69.57242 4004 ft 231 kts 221°
2026-04-23 12:17 41.35575 69.56309 4004 ft 222 kts 221°
2026-04-23 12:18 41.34467 69.54986 4009 ft 207 kts 221°
2026-04-23 12:18 41.33094 69.53350 4005 ft 195 kts 221°
2026-04-23 12:18 41.32105 69.52130 4004 ft 193 kts 230°
2026-04-23 12:18 41.31625 69.51144 3928 ft 188 kts 240°
2026-04-23 12:19 41.30987 69.49620 3590 ft 188 kts 240°
2026-04-23 12:19 41.30367 69.48145 3473 ft 176 kts 240°
2026-04-23 12:19 41.29798 69.46786 3389 ft 157 kts 240°
2026-04-23 12:19 41.29281 69.45552 3120 ft 149 kts 240°
2026-04-23 12:20 41.28791 69.44383 3019 ft 148 kts 240°
2026-04-23 12:20 41.28296 69.43198 3013 ft 145 kts 240°
2026-04-23 12:20 41.27806 69.42032 3009 ft 144 kts 240°
2026-04-23 12:20 41.27328 69.40862 3006 ft 144 kts 245°
2026-04-23 12:21 41.27139 69.39554 2863 ft 143 kts 260°
2026-04-23 12:21 41.26977 69.38265 2684 ft 143 kts 260°
2026-04-23 12:21 41.26823 69.36964 2502 ft 143 kts 261°
2026-04-23 12:21 41.26685 69.35660 2304 ft 143 kts 261°
2026-04-23 12:22 41.26547 69.34348 2075 ft 143 kts 261°
2026-04-23 12:22 41.26400 69.33039 1871 ft 143 kts 261°
2026-04-23 12:22 41.26260 69.31720 1692 ft 144 kts 261°
2026-04-23 12:22 41.26101 69.30408 1485 ft 142 kts 259°
2026-04-23 12:23 41.25960 69.29154 1410 ft 122 kts 260°
2026-04-23 12:23 41.25869 69.28328 1411 ft 58 kts 261°
2026-04-23 12:23 41.25816 69.27827 1414 ft 46 kts 262°
2026-04-23 12:23 41.25784 69.27458 1410 ft 39 kts 266°
2026-04-23 12:24 41.25748 69.27098 1413 ft 40 kts 260°
2026-04-23 12:24 41.25697 69.26734 1414 ft 40 kts 263°
2026-04-23 12:24 41.25696 69.26428 1414 ft 21 kts 320°
2026-04-23 12:24 41.25833 69.26474 1412 ft 23 kts 25°
2026-04-23 12:25 41.25981 69.26559 1408 ft 21 kts 26°
2026-04-23 12:25 41.26044 69.26616 1411 ft 0 kts 70°
2026-04-23 12:25 41.26044 69.26619 1414 ft 0 kts 76°